Hourly Weather Rudnya

Today, 11 April, Sunday

Time Temperature Precipitation Wind Pressure Humidity
00:00 +7°C° 0.2 mm 1 mps 750 mmHg 86%
01:00 +7°C° 0.2 mm 1 mps 750 mmHg 88%
02:00 +6°C° 0.2 mm 0 mps 750 mmHg 91%
03:00 +6°C° 0.4 mm 0 mps 751 mmHg 92%
04:00 +5°C° 0.4 mm 0 mps 751 mmHg 93%
05:00 +6°C° 0.4 mm 1 mps 751 mmHg 94%
06:00 +6°C° 0.1 mm 1 mps 751 mmHg 92%
07:00 +7°C° 0.1 mm 1 mps 752 mmHg 90%
08:00 +7°C° 0.1 mm 1 mps 752 mmHg 88%
09:00 +8°C° 0 mm 1 mps 753 mmHg 84%
10:00 +9°C° 0 mm 1 mps 753 mmHg 79%
11:00 +10°C° 0 mm 1 mps 753 mmHg 75%
12:00 +11°C° 0 mm 1 mps 753 mmHg 71%
13:00 +12°C° 0 mm 1 mps 754 mmHg 68%
14:00 +12°C° 0 mm 1 mps 754 mmHg 65%
15:00 +12°C° 0 mm 1 mps 754 mmHg 68%
16:00 +12°C° 0 mm 1 mps 754 mmHg 70%
17:00 +12°C° 0 mm 1 mps 754 mmHg 73%
18:00 +11°C° 0 mm 1 mps 754 mmHg 76%
19:00 +9°C° 0 mm 2 mps 754 mmHg 80%
20:00 +8°C° 0 mm 2 mps 755 mmHg 83%
21:00 +8°C° 0 mm 2 mps 755 mmHg 83%
22:00 +8°C° 0 mm 2 mps 755 mmHg 84%
23:00 +7°C° 0 mm 2 mps 755 mmHg 84%

Tomorrow, 12 April, Monday

Time Temperature Precipitation Wind Pressure Humidity
00:00 +7°C° 0 mm 2 mps 756 mmHg 84%
01:00 +6°C° 0 mm 2 mps 756 mmHg 84%
02:00 +6°C° 0 mm 2 mps 756 mmHg 85%
03:00 +5°C° 0 mm 2 mps 756 mmHg 85%
04:00 +5°C° 0 mm 2 mps 756 mmHg 86%
05:00 +4°C° 0 mm 2 mps 756 mmHg 86%
06:00 +6°C° 0 mm 2 mps 756 mmHg 79%
07:00 +8°C° 0 mm 3 mps 756 mmHg 73%
08:00 +9°C° 0 mm 3 mps 755 mmHg 66%
09:00 +11°C° 0 mm 3 mps 755 mmHg 59%
10:00 +12°C° 0 mm 4 mps 755 mmHg 52%
11:00 +14°C° 0 mm 4 mps 755 mmHg 45%
12:00 +14°C° 0 mm 4 mps 754 mmHg 42%
13:00 +15°C° 0 mm 4 mps 753 mmHg 39%
14:00 +17°C° 0 mm 4 mps 753 mmHg 36%
15:00 +16°C° 0 mm 3 mps 752 mmHg 39%
16:00 +14°C° 0 mm 3 mps 752 mmHg 41%
17:00 +14°C° 0 mm 3 mps 752 mmHg 44%
18:00 +13°C° 0 mm 3 mps 751 mmHg 50%
19:00 +11°C° 0 mm 3 mps 751 mmHg 57%
20:00 +10°C° 0 mm 3 mps 751 mmHg 64%
21:00 +10°C° 0 mm 3 mps 751 mmHg 71%
22:00 +9°C° 0 mm 3 mps 751 mmHg 78%
23:00 +8°C° 0 mm 3 mps 751 mmHg 85%

Day after tomorrow, 13 April, Tuesday

Time Temperature Precipitation Wind Pressure Humidity
00:00 +8°C° 0.3 mm 2 mps 751 mmHg 88%
01:00 +8°C° 0.3 mm 2 mps 751 mmHg 92%
02:00 +8°C° 0.3 mm 2 mps 750 mmHg 95%
03:00 +8°C° 0.1 mm 2 mps 750 mmHg 96%
04:00 +9°C° 0.1 mm 1 mps 750 mmHg 97%
05:00 +9°C° 0.1 mm 1 mps 750 mmHg 98%
06:00 +10°C° 0 mm 1 mps 750 mmHg 94%
07:00 +10°C° 0 mm 1 mps 750 mmHg 90%
08:00 +11°C° 0 mm 1 mps 750 mmHg 86%
09:00 +12°C° 0 mm 2 mps 750 mmHg 82%
10:00 +13°C° 0 mm 2 mps 749 mmHg 77%
11:00 +14°C° 0 mm 2 mps 749 mmHg 72%
12:00 +14°C° 0 mm 2 mps 749 mmHg 75%
13:00 +14°C° 0 mm 2 mps 749 mmHg 78%
14:00 +13°C° 0 mm 2 mps 749 mmHg 81%
15:00 +13°C° 0 mm 2 mps 749 mmHg 82%
16:00 +13°C° 0 mm 1 mps 749 mmHg 84%
17:00 +13°C° 0 mm 1 mps 748 mmHg 85%
18:00 +12°C° 0.1 mm 1 mps 748 mmHg 88%
19:00 +12°C° 0.1 mm 1 mps 748 mmHg 91%
20:00 +11°C° 0.1 mm 1 mps 748 mmHg 94%
21:00 +11°C° 0.4 mm 1 mps 748 mmHg 95%
22:00 +11°C° 0.4 mm 1 mps 748 mmHg 96%
23:00 +11°C° 0.4 mm 1 mps 748 mmHg 97%

14 April, Wednesday

Time Temperature Precipitation Wind Pressure Humidity
00:00 +11°C° 0.8 mm 1 mps 748 mmHg 97%
01:00 +11°C° 0.8 mm 1 mps 747 mmHg 98%
02:00 +11°C° 0.8 mm 1 mps 747 mmHg 98%
03:00 +9°C° 1.2 mm 2 mps 747 mmHg 98%
04:00 +9°C° 1.2 mm 2 mps 747 mmHg 97%
05:00 +8°C° 1.2 mm 2 mps 747 mmHg 97%
06:00 +8°C° 0.9 mm 2 mps 747 mmHg 97%
07:00 +8°C° 0.9 mm 2 mps 747 mmHg 96%
08:00 +8°C° 0.9 mm 2 mps 747 mmHg 95%
09:00 +8°C° 0.3 mm 2 mps 748 mmHg 94%
10:00 +8°C° 0.3 mm 3 mps 748 mmHg 93%
11:00 +8°C° 0.3 mm 3 mps 748 mmHg 92%
12:00 +8°C° 0.1 mm 3 mps 748 mmHg 91%
13:00 +9°C° 0.1 mm 3 mps 748 mmHg 89%
14:00 +9°C° 0.1 mm 3 mps 748 mmHg 88%
15:00 +8°C° 0 mm 3 mps 748 mmHg 89%
16:00 +8°C° 0 mm 3 mps 748 mmHg 91%
17:00 +7°C° 0 mm 3 mps 748 mmHg 92%
18:00 +7°C° 0.1 mm 3 mps 748 mmHg 93%
19:00 +5°C° 0.1 mm 3 mps 748 mmHg 93%
20:00 +5°C° 0.1 mm 3 mps 749 mmHg 94%
21:00 +4°C° 0.1 mm 3 mps 748 mmHg 94%
22:00 +4°C° 0.1 mm 3 mps 748 mmHg 95%
23:00 +4°C° 0.1 mm 3 mps 748 mmHg 95%

15 April, Thursday

Time Temperature Precipitation Wind Pressure Humidity
00:00 +4°C° 0.2 mm 3 mps 748 mmHg 95%
01:00 +4°C° 0.2 mm 3 mps 748 mmHg 95%
02:00 +4°C° 0.2 mm 3 mps 748 mmHg 95%
03:00 +4°C° 0 mm 3 mps 748 mmHg 95%
04:00 +4°C° 0 mm 3 mps 748 mmHg 95%
05:00 +4°C° 0 mm 3 mps 748 mmHg 94%
06:00 +4°C° 0 mm 4 mps 748 mmHg 94%
07:00 +4°C° 0 mm 4 mps 748 mmHg 93%
08:00 +4°C° 0 mm 4 mps 748 mmHg 93%
09:00 +4°C° 0.2 mm 4 mps 748 mmHg 92%
10:00 +4°C° 0.2 mm 4 mps 749 mmHg 91%
11:00 +5°C° 0.2 mm 4 mps 749 mmHg 90%
12:00 +5°C° 0 mm 4 mps 749 mmHg 90%
13:00 +5°C° 0 mm 4 mps 749 mmHg 89%
14:00 +5°C° 0 mm 5 mps 749 mmHg 88%
15:00 +3°C° 0 mm 5 mps 749 mmHg 87%
16:00 +3°C° 0 mm 5 mps 750 mmHg 86%
17:00 +3°C° 0 mm 5 mps 750 mmHg 85%
18:00 +3°C° 0 mm 5 mps 750 mmHg 84%
19:00 +4°C° 0 mm 4 mps 750 mmHg 82%
20:00 +4°C° 0 mm 4 mps 751 mmHg 81%
21:00 +3°C° 0 mm 4 mps 751 mmHg 79%
22:00 +3°C° 0 mm 4 mps 751 mmHg 77%
23:00 +2°C° 0 mm 5 mps 751 mmHg 75%

16 April, Friday

Time Temperature Precipitation Wind Pressure Humidity
00:00 +1°C° 0 mm 5 mps 751 mmHg 75%
01:00 0°C° 0 mm 5 mps 751 mmHg 76%
02:00 0°C° 0 mm 5 mps 751 mmHg 76%
03:00 -1°C° 0 mm 5 mps 752 mmHg 76%
04:00 -1°C° 0 mm 5 mps 752 mmHg 76%
05:00 -1°C° 0 mm 5 mps 752 mmHg 76%
06:00 0°C° 0 mm 5 mps 753 mmHg 73%
07:00 +1°C° 0 mm 5 mps 753 mmHg 70%
08:00 +2°C° 0 mm 5 mps 754 mmHg 67%
09:00 +3°C° 0 mm 5 mps 754 mmHg 60%
10:00 +4°C° 0 mm 6 mps 754 mmHg 52%
11:00 +7°C° 0 mm 6 mps 754 mmHg 44%
12:00 +7°C° 0 mm 6 mps 754 mmHg 40%
13:00 +7°C° 0 mm 6 mps 755 mmHg 37%
14:00 +8°C° 0 mm 6 mps 755 mmHg 33%
15:00 +7°C° 0 mm 5 mps 755 mmHg 36%
16:00 +7°C° 0 mm 5 mps 755 mmHg 38%
17:00 +7°C° 0 mm 4 mps 755 mmHg 41%
18:00 +5°C° 0 mm 4 mps 756 mmHg 47%
19:00 +4°C° 0 mm 3 mps 756 mmHg 53%
20:00 +3°C° 0 mm 3 mps 757 mmHg 59%
21:00 +3°C° 0 mm 2 mps 757 mmHg 64%
22:00 +2°C° 0 mm 2 mps 758 mmHg 68%
23:00 +1°C° 0 mm 2 mps 758 mmHg 73%
Show more